This demonstration page uses our WeatherBlox Daily Observations layout. Learn more.

Left ArrowRight Arrow

Hourly Observations for February 13, 2015

Temp ( °F °C ) Dew Point ( °F °C ) Humidity (%) Winds ( mph kmh ) Pressure ( in mb ) Visibility ( mi km ) Precip ( " mm )
12:51 am 00:51 Clear 47 8.3 30 -1.1 52 52 E 8 13 30.20 1023 10 16 0.00 0.00
1:51 am 01:51 Clear 45 7.2 30 -1.1 56 56 E 9 15 30.19 1022 10 16 0.00 0.00
2:51 am 02:51 Clear 44 6.7 30 -1.1 58 58 ESE 9 15 30.19 1022 10 16 0.00 0.00
3:51 am 03:51 Clear 43 6.1 30 -1.1 60 60 E 10 17 30.17 1022 10 16 0.00 0.00
4:51 am 04:51 Clear 46 7.8 29 -1.7 51 51 E 12 19 30.16 1021 10 16 0.00 0.00
5:51 am 05:51 Clear 44 6.7 29 -1.7 55 55 ESE 12 19 30.19 1022 10 16 0.00 0.00
6:51 am 06:51 Clear 43 6.1 29 -1.7 58 58 SSE 9 15 30.21 1023 10 16 0.00 0.00
7:51 am 07:51 Sunny 46 7.8 30 -1.1 54 54 ESE 15 24 30.23 1024 10 16 0.00 0.00
8:51 am 08:51 Sunny 50 10 30 -1.1 46 46 ESE 14 22 30.26 1025 10 16 0.00 0.00
9:51 am 09:51 Sunny 54 12.2 30 -1.1 40 40 SSE 13 20 30.26 1025 10 16 0.00 0.00
10:51 am 10:51 Sunny 57 13.9 30 -1.1 36 36 S 8 13 30.25 1024 10 16 0.00 0.00
11:51 am 11:51 Sunny 60 15.6 31 -0.6 33 33 S 7 11 30.22 1023 10 16 0.00 0.00
12:51 pm 12:51 Sunny 63 17.2 33 0.6 33 33 VRB 6 9 30.18 1022 10 16 0.00 0.00
1:51 pm 13:51 Sunny 66 18.9 34 1.1 30 30 VRB 6 9 30.12 1020 10 16 0.00 0.00
2:51 pm 14:51 Sunny 68 20 35 1.7 30 30 SE 10 17 30.10 1019 10 16 0.00 0.00
3:51 pm 15:51 Sunny 70 21.1 35 1.7 28 28 SE 8 13 30.08 1019 10 16 0.00 0.00
4:51 pm 16:51 Sunny 69 20.6 34 1.1 27 27 Calm 30.07 1018 10 16 0.00 0.00
5:51 pm 17:51 Sunny 67 19.4 35 1.7 31 31 SE 5 7 30.07 1018 10 16 0.00 0.00
6:51 pm 18:51 Clear 62 16.7 36 2.2 38 38 Calm 30.09 1019 10 16 0.00 0.00
7:51 pm 19:51 Clear 54 12.2 37 2.8 53 53 E 3 6 30.12 1020 10 16 0.00 0.00
8:51 pm 20:51 Clear 56 13.3 37 2.8 49 49 NE 9 15 30.12 1020 10 16 0.00 0.00
9:51 pm 21:51 Clear 53 11.7 37 2.8 55 55 E 9 15 30.13 1020 10 16 0.00 0.00
10:51 pm 22:51 Clear 54 12.2 36 2.2 51 51 SE 9 15 30.14 1021 10 16 0.00 0.00
11:51 pm 23:51 Clear 53 11.7 36 2.2 52 52 ESE 9 15 30.15 1021 10 16 0.00 0.00

Powered by AerisWeather